CZ-3B DEB, 41119

Orbit data source: Space-Track

CZ-3B DEB, 41119 is space debris in HEO originally from a launch on Mon, 19 Dec 2011 UTC launched from the Xichang Space Center, China (XSC). Debris objects in space refer to the collection of defunct objects orbiting the Earth. Examples of debris include non-operational satellites, rocket bodies, and fragments generated from explosions, collisions, or faulty payload assembly.

Loading next visibility...
Identifier
41119, 2011-077AJ
Orbit
HEO
Country
Flag of CNCN / PRC
Related business
Manufacturer
CALT
Mission
Spacecraft
Bus & Motor
Unknown
Mass
Unknown
Launch date (UTC)
2011-12-19 (14 years ago)
Launch vehicle
Unknown
Launch site
Xichang Space Center, China (XSC)
Object type
Payload
Rocket body
Debris
Shape & HBR
Unknown shape, 0.2 m
Radar Cross Section
Medium (>0.1 m² and <1 m²)

Expand to show TLE details & history
Last TLE update: 5 days ago

TLE from 5 days ago
0 CZ-3B DEB
1 41119U 11077AJ  26030.98297113 -.00000037  00000-0  00000-0 0  9994
2 41119  22.5571  24.1300 7283106 209.0421  75.8170  1.69778354 68670
Epoch: 2026-01-30T23:35Z
TLE epoch observation values (Epoch: 2026-01-30T23:35:28.705Z)
Latitude
-0.00008°
Longitude
-99.94328°
Altitude
32,001.16 km
Speed
2.71 km/s
True Right ascension
01h 36m 33s
True Declination
0° 00' 00"
Sunlit
Object was in daylight at epoch
Visualization orbit readout
Latitude
Unknown
Longitude
Unknown
Altitude
Unknown
Speed
Unknown
Apparent Right ascension
Unknown
Apparent Declination
Unknown
Sunlit
N/A
Visualization observer readout
Local Sidereal Time
06:09:08
Azimuth
Unknown
Elevation
Unknown
Doppler factor
Unknown
Orbital elements
Apogee altitude
44,926.301 km
Perigee altitude
1,686.89 km
Semi-major axis
29,684.733 km
Eccentricity
0.72831
Inclination
22.5571°
RAAN
24.13°
Arg. of periapsis
209.0421°
True anomaly
151.09715°
Mean anomaly
75.817°
Eccentric anomaly
113.95251°
Mean motion
0.42437 °/min
Orbital period
848.32 mins
BSTAR
0
Loading maneuver chart data...
Computing Atmospheric mass density...
Loading historical data...
Loading historical data...
Loading historical data...
Loading historical data...
Loading historical data...
Loading historical data...
Loading historical data...

Documentation

Showing up to 5 results
|